CZ-6A DEB, 54523

Orbit data source: Space-Track

CZ-6A DEB, 54523 is space debris in SSO originally from a launch on Fri, 11 Nov 2022 UTC launched from the Taiyaun Space Center, China (TSC). Debris objects in space refer to the collection of defunct objects orbiting the Earth. Examples of debris include non-operational satellites, rocket bodies, and fragments generated from explosions, collisions, or faulty payload assembly.

Loading next visibility...
Identifier
54523, 2022-151KB
Orbit
SSO
Country
Flag of CNCN / PRC
Related business
Manufacturer
SAST
Mission
Spacecraft
Bus & Motor
Unknown
Mass
Unknown
Launch date (UTC)
2022-11-11 (3 years ago)
Launch vehicle
Unknown
Launch site
Taiyaun Space Center, China (TSC)
Object type
Payload
Rocket body
Debris
Shape & HBR
Unknown shape, 0.1 m
Radar Cross Section
Small (<0.1 m²)

Expand to show TLE details & history
Last TLE update: 23 hours ago

TLE from 23 hours ago
0 CZ-6A DEB
1 54523U 22151KB  25349.75749884  .00014085  00000-0  14611-2 0  9998
2 54523  98.7112  73.6250 0077848  75.9482 285.0370 14.87852670164588
Epoch: 2025-12-15T18:10Z
TLE epoch observation values (Epoch: 2025-12-15T18:10:47.899Z)
Latitude
-0.00004°
Longitude
76.27395°
Altitude
593.943 km
Speed
7.57 km/s
True Right ascension
04h 54m 30s
True Declination
0° 00' 00"
Sunlit
Object was in full shadow at epoch
Visualization orbit readout
Latitude
Unknown
Longitude
Unknown
Altitude
Unknown
Speed
Unknown
Apparent Right ascension
Unknown
Apparent Declination
Unknown
Sunlit
N/A
Visualization observer readout
Local Sidereal Time
15:42:10
Azimuth
Unknown
Elevation
Unknown
Doppler factor
Unknown
Orbital elements
Apogee altitude
656.051 km
Perigee altitude
547.378 km
Semi-major axis
6,979.852 km
Eccentricity
0.00778
Inclination
98.7112°
RAAN
73.625°
Arg. of periapsis
75.9482°
True anomaly
284.17333°
Mean anomaly
285.037°
Eccentric anomaly
284.60538°
Mean motion
3.72198 °/min
Orbital period
96.72 mins
BSTAR
0.0014611
Loading maneuver chart data...
Computing Atmospheric mass density...
Loading historical data...
Loading historical data...
Loading historical data...
Loading historical data...
Loading historical data...
Loading historical data...
Loading historical data...

Documentation

Showing up to 5 results
|